TimeEET,TemperatureF,Dew PointF,Humidity,Sea Level PressureIn,VisibilityMPH,Wind Direction,Wind SpeedMPH,Gust SpeedMPH,PrecipitationIn,Events,Conditions,WindDirDegrees,DateUTC
12:20 AM,50.0,41.0,71,29.56,6.2,East,6.9,-,N/A,Rain,Light Rain Showers,80,2012-01-25 22:20:00
12:50 AM,48.2,41.0,76,29.56,6.2,East,5.8,-,N/A,,Mostly Cloudy,80,2012-01-25 22:50:00
1:20 AM,48.2,41.0,76,29.56,6.2,East,6.9,-,N/A,,Mostly Cloudy,80,2012-01-25 23:20:00
1:50 AM,50.0,41.0,71,29.56,6.2,ENE,4.6,-,N/A,,Mostly Cloudy,70,2012-01-25 23:50:00
2:00 AM,49,41,66,29.58,6,ENE,4.6,,,,Partly Cloudy,70,2012-01-26 00:00:00
2:20 AM,50.0,41.0,71,29.56,6.2,NE,6.9,-,N/A,,Mostly Cloudy,50,2012-01-26 00:20:00
2:50 AM,50.0,41.0,71,29.56,6.2,NE,6.9,-,N/A,,Mostly Cloudy,50,2012-01-26 00:50:00
3:20 AM,50.0,41.0,71,29.53,6.2,NE,5.8,-,N/A,,Mostly Cloudy,50,2012-01-26 01:20:00
3:50 AM,50.0,41.0,71,29.53,6.2,Variable,2.3,-,N/A,Rain,Light Rain Showers,0,2012-01-26 01:50:00
4:20 AM,50.0,41.0,71,29.53,6.2,ENE,4.6,-,N/A,Rain,Light Rain Showers,70,2012-01-26 02:20:00
4:50 AM,50.0,42.8,76,29.53,5.6,East,5.8,-,N/A,Rain,Light Rain Showers,80,2012-01-26 02:50:00
5:20 AM,48.2,42.8,82,29.56,6.2,East,3.5,-,N/A,Rain,Light Rain Showers,100,2012-01-26 03:20:00
5:50 AM,48.2,44.6,87,29.56,6.2,Variable,2.3,-,N/A,Rain,Light Rain Showers,0,2012-01-26 03:50:00
6:20 AM,46.4,46.4,100,29.59,6.2,WSW,1.2,-,N/A,Rain,Light Rain Showers,250,2012-01-26 04:20:00
6:50 AM,46.4,46.4,100,29.59,6.2,Variable,2.3,-,N/A,Rain,Light Rain Showers,0,2012-01-26 04:50:00
7:20 AM,46.4,46.4,100,29.59,4.3,Variable,2.3,-,N/A,Rain,Light Rain Showers,0,2012-01-26 05:20:00
7:50 AM,46.4,46.4,100,29.59,1.9,Variable,2.3,-,N/A,Rain,Rain Showers,0,2012-01-26 05:50:00
8:00 AM,46,46,100,29.62,2,ENE,2.3,,,Rain,Heavy Rain Showers,70,2012-01-26 06:00:00
8:20 AM,46.4,46.4,100,29.59,2.5,Variable,1.2,-,N/A,Rain,Light Rain Showers,0,2012-01-26 06:20:00
8:50 AM,50.0,48.2,94,29.62,2.5,Variable,5.8,-,N/A,Rain,Light Rain Showers,0,2012-01-26 06:50:00
9:20 AM,51.8,46.4,82,29.62,1.9,ESE,4.6,-,N/A,Rain,Rain Showers,120,2012-01-26 07:20:00
9:50 AM,50.0,46.4,87,29.62,4.3,ESE,5.8,-,N/A,Rain,Light Rain Showers,120,2012-01-26 07:50:00
10:20 AM,50.0,48.2,94,29.62,6.2,ESE,6.9,-,N/A,Rain,Light Rain Showers,120,2012-01-26 08:20:00
10:50 AM,50.0,48.2,94,29.65,6.2,SE,5.8,-,N/A,Rain,Light Rain Showers,140,2012-01-26 08:50:00
11:20 AM,51.8,48.2,88,29.65,4.3,SSE,9.2,-,N/A,Rain,Light Rain Showers,150,2012-01-26 09:20:00
11:50 AM,51.8,46.4,82,29.62,4.3,ESE,6.9,-,N/A,Rain,Light Rain Showers,120,2012-01-26 09:50:00
12:20 PM,50.0,44.6,82,29.62,6.2,SSE,9.2,-,N/A,Rain,Light Rain Showers,160,2012-01-26 10:20:00
12:50 PM,51.8,44.6,76,29.62,6.2,South,4.6,-,N/A,Rain,Light Rain Showers,170,2012-01-26 10:50:00
1:20 PM,51.8,42.8,71,29.65,6.2,SSW,6.9,-,N/A,,Mostly Cloudy,200,2012-01-26 11:20:00
1:50 PM,51.8,44.6,76,29.65,6.2,SW,6.9,-,N/A,,Mostly Cloudy,230,2012-01-26 11:50:00
2:00 PM,51,42,63,29.67,6,SW,6.9,,,Rain,Light Rain Showers,230,2012-01-26 12:00:00
2:50 PM,50.0,44.6,82,29.65,6.2,WSW,6.9,-,N/A,,Mostly Cloudy,250,2012-01-26 12:50:00
3:20 PM,51.8,42.8,71,29.65,6.2,West,8.1,-,N/A,,Mostly Cloudy,260,2012-01-26 13:20:00
3:50 PM,50.0,41.0,71,29.68,6.2,WSW,6.9,-,N/A,,Mostly Cloudy,250,2012-01-26 13:50:00
4:20 PM,48.2,42.8,82,29.68,6.2,West,6.9,-,N/A,,Mostly Cloudy,260,2012-01-26 14:20:00
4:50 PM,48.2,42.8,82,29.68,6.2,West,9.2,-,N/A,,Mostly Cloudy,280,2012-01-26 14:50:00
5:20 PM,42.8,39.2,87,29.71,6.2,NW,23.0,-,N/A,,Mostly Cloudy,320,2012-01-26 15:20:00
5:50 PM,39.2,37.4,93,29.74,6.2,NNW,25.3,-,N/A,,Mostly Cloudy,330,2012-01-26 15:50:00
6:20 PM,37.4,35.6,93,29.74,6.2,NNW,26.5,-,N/A,,Mostly Cloudy,330,2012-01-26 16:20:00
6:50 PM,35.6,33.8,93,29.77,6.2,NNW,29.9,-,N/A,,Mostly Cloudy,330,2012-01-26 16:50:00
7:20 PM,35.6,33.8,93,29.77,6.2,NNW,27.6,39.1,N/A,,Mostly Cloudy,330,2012-01-26 17:20:00
7:50 PM,35.6,33.8,93,29.80,6.2,NNW,29.9,-,N/A,,Mostly Cloudy,330,2012-01-26 17:50:00
8:00 PM,35,33,89,29.82,6,NNW,29.9,,,,Mostly Cloudy,330,2012-01-26 18:00:00
8:20 PM,33.8,32.0,93,29.80,6.2,NNW,31.1,-,N/A,,Mostly Cloudy,330,2012-01-26 18:20:00
8:50 PM,33.8,32.0,93,29.80,6.2,NNW,33.4,44.9,N/A,,Mostly Cloudy,340,2012-01-26 18:50:00
9:20 PM,33.8,30.2,87,29.83,6.2,NNW,31.1,44.9,N/A,,Mostly Cloudy,340,2012-01-26 19:20:00
9:50 PM,33.8,30.2,87,29.83,6.2,NNW,35.7,-,N/A,,Mostly Cloudy,340,2012-01-26 19:50:00
10:20 PM,32.0,30.2,93,29.86,3.7,NNW,32.2,-,N/A,Snow,Light Snow Showers,340,2012-01-26 20:20:00
10:50 PM,32.0,28.4,87,29.89,3.7,NNW,29.9,-,N/A,Snow,Light Snow Showers,330,2012-01-26 20:50:00
11:20 PM,32.0,28.4,87,29.89,3.7,NNW,28.8,-,N/A,Snow,Light Snow Showers,340,2012-01-26 21:20:00
11:50 PM,32.0,28.4,87,29.92,3.7,NNW,29.9,-,N/A,Snow,Light Snow Showers,340,2012-01-26 21:50:00